• MPC Preparation (Info)

  • MPEC 2016-N97 : 2016 NG33

    The following Minor Planet Electronic Circular may be linked-to from your own Web pages, but must not otherwise be redistributed electronically.

    A form allowing access to any MPEC is at the bottom of this page.


    Read MPEC 2016-N96 Read MPEC 2016-N98


    M.P.E.C. 2016-N97                                Issued 2016 July 14, 15:37 UT
    
         The Minor Planet Electronic Circulars contain information on unusual
             minor planets and routine data on comets.  They are published
        on behalf of Division F of the International Astronomical Union by the
              Minor Planet Center, Smithsonian Astrophysical Observatory,
                              Cambridge, MA 02138, U.S.A.
    
                 Prepared using the Tamkin Foundation Computer Network
    
                                  MPC@CFA.HARVARD.EDU
                URL https://www.minorplanetcenter.net/    ISSN 1523-6714
    
                                       2016 NG33
    
    Observations:
         K16N33G* C2016 07 11.31139 23 02 39.26 +44 14 01.4          20.9 VqEN097G96
         K16N33G  C2016 07 11.31949 23 02 39.95 +44 13 41.2          20.6 VqEN097G96
         K16N33G  C2016 07 11.32761 23 02 40.64 +44 13 21.5          20.7 VqEN097G96
         K16N33G  C2016 07 11.36972 23 02 44.50 +44 11 30.2          21.3 VqEN097G96
         K16N33G  C2016 07 11.38876 23 02 45.89 +44 10 48.6          21.0 VqEN097G96
         K16N33G KC2016 07 12.03202 23 03 48.47 +43 42 24.9          20.8 RqEN097104
         K16N33G KC2016 07 12.07015 23 03 51.62 +43 40 44.2          20.8 RqEN097104
         K16N33G KC2016 07 12.07733 23 03 52.17 +43 40 25.3                qEN097104
         K16N33G KC2016 07 12.08270 23 03 52.63 +43 40 10.0          20.4 RqEN097104
         K16N33G  C2016 07 13.42208 23 06 03.20 +42 37 19.4          20.4 VqEN097G96
         K16N33G  C2016 07 13.42908 23 06 03.74 +42 36 58.5          20.4 VqEN097G96
         K16N33G  C2016 07 13.43614 23 06 04.29 +42 36 37.9          20.7 VqEN097G96
         K16N33G KC2016 07 14.36047 23 07 35.13 +41 49 39.7          20.3 RqEN097H36
         K16N33G KC2016 07 14.36815 23 07 35.63 +41 49 15.9          20.2 RqEN097H36
         K16N33G KC2016 07 14.38269 23 07 36.78 +41 48 29.3          20.4 RqEN097H36
         K16N33G KC2016 07 14.39876 23 07 38.12 +41 47 40.5          19.8 RqEN097H36
         K16N33G KC2016 07 14.40641 23 07 38.83 +41 47 16.6          20.5 RqEN097H36
    
    Observer details:
    104 San Marcello Pistoiese.  Observers P. Bacci, M. Maestripieri.  Measurers
        P. Bacci, L. Tesi, G. Fagioli.  0.60-m f/4 reflector + CCD.
    G96 Mt. Lemmon Survey.  Observers D. C. Fuls, A. D. Grauer.  Measurers
        E. J. Christensen, D. C. Fuls, A. R. Gibbs, A. D. Grauer, J. A. Johnson,
        R. A. Kowalski, S. M. Larson, G. J. Leonard, R. G. Matheny, R. L. Seaman,
        F. C. Shelly.  1.5-m reflector + 10K CCD.
    H36 Sandlot Observatory, Scranton.  Observer G. Hug.  0.56-m reflector + CCD.
    
    Orbital elements:
    2016 NG33                                           PHA, Earth MOID = 0.0483 AU
    Epoch 2016 July 31.0 TT = JDT 2457600.5                 MPC
    M 133.50225              (2000.0)            P               Q
    n   0.94917584     Peri.   35.13256     -0.94104593     -0.07498421
    a   1.0254274      Node   136.59024     +0.06928119     -0.99717473
    e   0.0997104      Incl.   28.68560     +0.33110826     -0.00446423
    P   1.04           H   21.2           G   0.15           U   9
    Residuals in seconds of arc
    160711 G96  0.3-  0.2+    160712 104  0.1+  0.1+    160714 H36  1.0+  0.3+
    160711 G96  0.5-  0.0     160712 104  0.4-  0.3+    160714 H36  0.5-  0.3+
    160711 G96  0.6-  0.3+    160712 104  0.3-  0.7-    160714 H36  0.9-  1.1-
    160711 G96 (2.8+  6.1-)   160713 G96  0.1+  0.6+    160714 H36  0.5-  0.3+
    160711 G96  0.9+  0.2+    160713 G96  0.1-  0.1+    160714 H36  0.5+  0.4+
    160712 104  0.7+  0.1-    160713 G96  0.3-  0.2+
    
    Ephemeris:
    2016 NG33                a,e,i = 1.03, 0.10, 29                  q = 0.9232
    Date    TT    R. A. (2000) Decl.     Delta      r     Elong.  Phase     V
    2016 06 14    22 20 02.1 +54 20 58   0.4130  1.0336    80.8    76.0    22.0
    ...
    2016 06 29    22 42 55.0 +50 27 42   0.3304  1.0579    88.0    73.8    21.5
    ...
    2016 07 07    22 55 39.8 +46 55 56   0.2798  1.0700    93.3    71.6    21.1
    ...
    2016 07 13    23 05 21.3 +42 57 42   0.2404  1.0785    98.5    68.8    20.7
    2016 07 14    23 06 58.8 +42 08 19   0.2338  1.0799    99.5    68.2    20.6
    2016 07 15    23 08 36.6 +41 15 30   0.2272  1.0813   100.5    67.6    20.5
    ...
    2016 07 21    23 18 25.3 +34 27 34   0.1885  1.0891   108.0    62.6    20.0
    ...
    2016 07 29    23 31 23.2 +19 04 23   0.1431  1.0985   122.3    51.4    19.1
    ...
    2016 08 13    23 53 02.0 -34 48 04   0.1228  1.1129   142.4    33.8    18.3
    
    A. U. Tomatic                (C) Copyright 2016 MPC           M.P.E.C. 2016-N97
    

    Read MPEC 2016-N96 Read MPEC 2016-N98


    MPEC number:

    Enter an MPEC number in one of the following forms:

    • 1997-B01 (the full form)
    • J97B01 (the packed version of the full form)
    • B01 (the abbreviated form)